NOAA 16 DEB, 41347

Orbit data source: Space-Track

NOAA 16 DEB, 41347 is space debris in SSO originally from a launch on Thu, 21 Sep 2000 UTC launched from the Air Force Western Test Range (AFWTR). Debris objects in space refer to the collection of defunct objects orbiting the Earth. Examples of debris include non-operational satellites, rocket bodies, and fragments generated from explosions, collisions, or faulty payload assembly.

Loading next visibility...
Identifier
41347, 2000-055HQ
Orbit
SSO
Country
Flag of USUS
Related business
Manufacturer
Unknown
Mission
Spacecraft
Bus & Motor
Unknown
Mass
Unknown
Launch date (UTC)
2000-09-21 (26 years ago)
Launch vehicle
Unknown
Launch site
Air Force Western Test Range (AFWTR)
Object type
Payload
Rocket body
Debris
Shape & HBR
Unknown shape, 0.1 m
Radar Cross Section
Medium (>0.1 m² and <1 m²)

Expand to show TLE details & history
Last TLE update: 10 hours ago

TLE from 10 hours ago
0 NOAA 16 DEB
1 41347U 00055HQ  26236.17183523  .00004080  00000-0  14208-2 0  9997
2 41347  98.6999 314.4327 0020890 155.6088 204.6090 14.35814968546989
Epoch: 2026-08-24T04:07Z
TLE epoch observation values (Epoch: 2026-08-24T04:07:26.563Z)
Latitude
-0.00009°
Longitude
-79.88533°
Altitude
788.885 km
Speed
7.452 km/s
True Right ascension
20h 57m 43s
True Declination
0° 00' 00"
Sunlit
Object was in full shadow at epoch
Visualization orbit readout
Latitude
Unknown
Longitude
Unknown
Altitude
Unknown
Speed
Unknown
Apparent Right ascension
Unknown
Apparent Declination
Unknown
Sunlit
N/A
Visualization observer readout
Local Sidereal Time
05:19:20
Azimuth
Unknown
Elevation
Unknown
Doppler factor
Unknown
Orbital elements
Apogee altitude
784.428 km
Perigee altitude
754.565 km
Semi-major axis
7,147.633 km
Eccentricity
0.00209
Inclination
98.6999°
RAAN
314.4327°
Arg. of periapsis
155.6088°
True anomaly
204.50955°
Mean anomaly
204.609°
Eccentric anomaly
204.55925°
Mean motion
3.5917 °/min
Orbital period
100.23 mins
BSTAR
0.0014208
Loading maneuver chart data...
Computing Atmospheric mass density...
Loading historical data...
Loading historical data...
Loading historical data...
Loading historical data...
Loading historical data...
Loading historical data...
Loading historical data...

Documentation

Showing up to 5 results
|